This demonstration page uses our WeatherBlox Daily Observations layout. Learn more.

41.86663, -103.66717

Hourly Observations for December 19, 2019

Temp ( °F °C ) Dew Point ( °F °C ) Humidity (%) Winds ( mph kmh ) Pressure ( in mb ) Visibility ( mi km ) Precip ( " mm )
12:53 am 00:53 Clear 21 -6.1 15 -9.4 78 78 Calm 30.01 1016 10 16.0934 0 0
1:53 am 01:53 Clear 19 -7.2 14 -10 81 81 Calm 30.01 1016 10 16.0934 0 0
2:53 am 02:53 Clear 17 -8.3 14 -10 88 88 NNW 8 13 30 1016 10 16.0934 0 0
3:53 am 03:53 Clear 16 -8.9 13 -10.6 88 88 NNE 3 6 30 1016 10 16.0934 0 0
4:53 am 04:53 Clear 17 -8.3 13 -10.6 84 84 VRB 3 6 30 1016 10 16.0934 0 0
5:53 am 05:53 Clear 19 -7.2 15 -9.4 84 84 WNW 12 19 30 1016 10 16.0934 0 0
6:53 am 06:53 Clear 19 -7.2 16 -8.9 88 88 NW 10 17 30.03 1017 10 16.0934 0 0
7:53 am 07:53 Sunny 21 -6.1 16 -8.9 81 81 NW 8 13 30.05 1018 10 16.0934 0 0
8:53 am 08:53 Sunny 24 -4.4 18 -7.8 77 77 NNW 10 17 30.06 1018 10 16.0934 0 0
9:53 am 09:53 Sunny 28 -2.2 20 -6.7 72 72 W 3 6 30.07 1018 10 16.0934 0 0
10:53 am 10:53 Sunny 34 1.1 22 -5.6 61 61 Calm 30.02 1017 10 16.0934 0 0
11:53 am 11:53 Sunny 38 3.3 23 -5 55 55 NW 6 9 29.98 1015 10 16.0934 0 0
12:53 pm 12:53 Sunny 42 5.6 23 -5 47 47 WNW 12 19 29.96 1014 10 16.0934 0 0
1:53 pm 13:53 Sunny 41 5 24 -4.4 51 51 WNW 10 17 29.96 1014 10 16.0934 0 0
2:53 pm 14:53 Sunny 44 6.7 21 -6.1 40 40 NW 9 15 29.98 1015 10 16.0934 0 0
3:53 pm 15:53 Sunny 38 3.3 24 -4.4 57 57 WNW 7 11 30.04 1017 10 16.0934 0 0
4:53 pm 16:53 Clear 35 1.7 22 -5.6 59 59 WNW 7 11 30.06 1018 10 16.0934 0 0
5:53 pm 17:53 Clear 34 1.1 22 -5.6 61 61 WNW 9 15 30.09 1019 10 16.0934 0 0
6:53 pm 18:53 Clear 32 0 22 -5.6 66 66 WNW 12 19 30.13 1020 10 16.0934 0 0
7:53 pm 19:53 Clear 29 -1.7 20 -6.7 69 69 NW 9 15 30.16 1021 10 16.0934 0 0
8:53 pm 20:53 Clear 29 -1.7 19 -7.2 66 66 NW 8 13 30.16 1021 10 16.0934 0 0
9:53 pm 21:53 Clear 23 -5 18 -7.8 81 81 NNW 7 11 30.19 1022 10 16.0934 0 0
10:53 pm 22:53 Clear 25 -3.9 17 -8.3 72 72 NW 7 11 30.19 1022 10 16.0934 0 0
11:53 pm 23:53 Clear 25 -3.9 17 -8.3 72 72 NW 9 15 30.18 1022 10 16.0934 0 0

Powered by AerisWeather